Location: Zagreb
(45.8000°N, 16.0000°E)
Time: 20:42:53
(UTC+01:00)

DX 1 - Pass Details

Date: 30 October 2020
Orbit: 619 x 630 km, 98.5° (Epoch: 01 December)

Event Time Altitude Azimuth Distance (km) Brightness Sun altitude
Rises 04:20:17 0° 131° (SE) 2,889 ? -23.7°
Reaches altitude 10° 04:22:48 10° 117° (ESE) 1,987 ? -23.3°
Maximum altitude 04:26:13 24° 64° (ENE) 1,311 ? -22.7°
Drops below altitude 10° 04:29:40 10° 12° (NNE) 1,996 ? -22.1°
Sets 04:32:11 0° 358° (N) 2,907 ? -21.6°
